Change the Weather History Date:

Thursday, February 6, 2014

  Actual Average (KAPF) Record (KAPF)
Temperature  
Mean Temperature 76 °F 66 °F  
Max Temperature 82 °F 76 °F 85 °F (1989)
Min Temperature 69 °F 56 °F 33 °F (1966)
Degree Days  
Heating Degree Days 0 2  
Month to date heating degree days 12  
Since 1 July heating degree days 192  
Cooling Degree Days 10 3  
Month to date cooling degree days 17  
Year to date cooling degree days 103  
Growing Degree Days 26 (Base 50)    
Moisture  
Dew Point 70 °F    
Average Humidity 89    
Maximum Humidity 100    
Minimum Humidity 65    
Precipitation  
Precipitation 0.00 in 0.06 in 0.35 in (1992)
Month to date precipitation 0.43  
Year to date precipitation 2.28  
Snow  
Snow 0.00 in - - ()
Month to date snowfall  
Since 1 July snowfall  
Snow Depth -    
Sea Level Pressure  
Sea Level Pressure 30.07 in    
Wind  
Wind Speed 3 mph (WSW)    
Max Wind Speed 9 mph    
Max Gust Speed -    
Visibility 6 miles    
Events      
T = Trace of Precipitation, MM = Missing Value Source: NWS Daily Summary

Daily Weather History Graph

Daily Weather History Graph

Search for Another Location

Airport or City:

Trip Planner

Search our weather history database for the weather conditions in past years. The results will help you decide how hot, cold, wet, or windy it might be!

Date:

Astronomy

Feb. 06, 2014 Rise Set
Actual Time 7:08 AM EST 6:13 PM EST
Civil Twilight 6:44 AM EST 6:37 PM EST
Nautical Twilight 6:16 AM EST 7:05 PM EST
Astronomical Twilight 5:49 AM EST 7:32 PM EST
Moon 11:46 AM EST (2/6) 12:22 AM EST (2/6)
Length of Visible Light 11h 53m
Length of Day
11h 05m
Waxing Crescent, 49% of the Moon is Illuminated
Feb 6
Waxing Crescent
Feb 6
First Quarter
Feb 14
Full
Feb 22
Last Quarter
Mar 1
New

Hourly Weather History & Observations

Time (EST) Temp. Heat Index Dew Point Humidity Pressure Visibility Wind Dir Wind Speed Gust Speed Precip Events Conditions
12:15 AM 69.8 °F - 69.8 °F 100% 30.06 in 0.2 mi Calm Calm - N/A   Mostly Cloudy
12:35 AM 69.8 °F - 69.8 °F 100% 30.06 in 0.2 mi Calm Calm - N/A   Overcast
12:55 AM 69.8 °F - 68.0 °F 94% 30.06 in 0.5 mi East 3.5 mph - N/A   Overcast
1:15 AM 69.8 °F - 68.0 °F 94% 30.06 in 0.5 mi Calm Calm - N/A   Overcast
1:35 AM 69.8 °F - 69.8 °F 100% 30.06 in 0.8 mi Calm Calm - N/A   Overcast
1:55 AM 69.8 °F - 69.8 °F 100% 30.06 in 0.8 mi Calm Calm - N/A   Overcast
2:15 AM 69.8 °F - 68.0 °F 94% 30.05 in 0.5 mi Calm Calm - N/A   Overcast
2:35 AM 69.8 °F - 69.8 °F 100% 30.04 in 0.5 mi Calm Calm - N/A   Overcast
2:55 AM 69.8 °F - 69.8 °F 100% 30.04 in 0.2 mi Calm Calm - N/A   Overcast
3:15 AM 69.8 °F - 69.8 °F 100% 30.04 in 0.2 mi Calm Calm - N/A   Unknown
3:35 AM 69.8 °F - 69.8 °F 100% 30.04 in 0.5 mi ENE 3.5 mph - N/A   Overcast
3:55 AM 69.8 °F - 69.8 °F 100% 30.04 in 0.8 mi Calm Calm - N/A   Overcast
4:15 AM 69.8 °F - 68.0 °F 94% 30.04 in 1.0 mi NNE 3.5 mph - N/A   Overcast
4:35 AM 69.8 °F - 68.0 °F 94% 30.04 in 0.8 mi Calm Calm - N/A   Overcast
4:55 AM 69.8 °F - 68.0 °F 94% 30.05 in 0.5 mi Calm Calm - N/A   Overcast
5:15 AM 69.8 °F - 69.8 °F 100% 30.05 in 0.2 mi NNE 3.5 mph - N/A   Overcast
5:35 AM 69.8 °F - 69.8 °F 100% 30.05 in 0.2 mi NNE 3.5 mph - N/A   Overcast
5:55 AM 69.8 °F - 68.0 °F 94% 30.06 in 0.2 mi Calm Calm - N/A   Overcast
6:15 AM 69.8 °F - 68.0 °F 94% 30.07 in 0.2 mi East 3.5 mph - N/A   Overcast
6:35 AM 69.8 °F - 68.0 °F 94% 30.07 in 0.8 mi ENE 3.5 mph - N/A   Overcast
6:55 AM 69.8 °F - 68.0 °F 94% 30.08 in 0.5 mi Calm Calm - N/A   Overcast
7:15 AM 69.8 °F - 68.0 °F 94% 30.08 in 0.2 mi Calm Calm - N/A   Overcast
7:35 AM 69.8 °F - 68.0 °F 94% 30.08 in 0.2 mi NNE 4.6 mph - N/A   Overcast
7:55 AM 69.8 °F - 68.0 °F 94% 30.09 in 0.5 mi Calm Calm - N/A   Overcast
8:15 AM 69.8 °F - 68.0 °F 94% 30.09 in 0.5 mi East 4.6 mph - N/A   Overcast
8:35 AM 69.8 °F - 69.8 °F 100% 30.09 in 0.5 mi East 5.8 mph - N/A   Overcast
8:55 AM 69.8 °F - 69.8 °F 100% 30.10 in 0.8 mi NE 3.5 mph - N/A   Overcast
9:15 AM 69.8 °F - 69.8 °F 100% 30.11 in 3.0 mi NNE 5.8 mph - N/A   Overcast
9:35 AM 71.6 °F - 69.8 °F 94% 30.11 in 4.0 mi NE 5.8 mph - N/A   Overcast
9:55 AM 71.6 °F - 69.8 °F 94% 30.12 in 3.0 mi ENE 5.8 mph - N/A   Overcast
10:15 AM 71.6 °F - 69.8 °F 94% 30.12 in 9.0 mi ENE 4.6 mph - N/A   Overcast
10:35 AM 73.4 °F - 71.6 °F 94% 30.12 in 9.0 mi East 3.5 mph - N/A   Overcast
10:55 AM 73.4 °F - 71.6 °F 94% 30.12 in 10.0 mi ENE 3.5 mph - N/A   Mostly Cloudy
11:15 AM 75.2 °F - 71.6 °F 89% 30.12 in 10.0 mi Calm Calm - N/A   Overcast
11:35 AM 75.2 °F - 71.6 °F 89% 30.11 in 10.0 mi Calm Calm - N/A   Overcast
11:55 AM 78.8 °F - 71.6 °F 78% 30.10 in 10.0 mi SSE 4.6 mph - N/A   Mostly Cloudy
12:15 PM 78.8 °F - 71.6 °F 78% 30.09 in 10.0 mi South 3.5 mph - N/A   Partly Cloudy
12:35 PM 80.6 °F 84.6 °F 71.6 °F 74% 30.08 in 10.0 mi SSW 4.6 mph - N/A   Scattered Clouds
12:55 PM 82.4 °F 87.2 °F 71.6 °F 70% 30.07 in 10.0 mi SSW 4.6 mph - N/A   Partly Cloudy
1:15 PM 82.4 °F 87.2 °F 71.6 °F 70% 30.06 in 10.0 mi South 8.1 mph - N/A   Scattered Clouds
1:35 PM 82.4 °F 87.2 °F 71.6 °F 70% 30.05 in 10.0 mi WSW 8.1 mph - N/A   Partly Cloudy
1:55 PM 80.6 °F 84.6 °F 71.6 °F 74% 30.04 in 10.0 mi WSW 8.1 mph - N/A   Clear
2:15 PM 80.6 °F 84.6 °F 71.6 °F 74% 30.04 in 10.0 mi WSW 6.9 mph - N/A   Clear
2:35 PM 80.6 °F 84.6 °F 71.6 °F 74% 30.03 in 10.0 mi WSW 8.1 mph - N/A   Clear
2:55 PM 80.6 °F 83.9 °F 69.8 °F 70% 30.03 in 10.0 mi SSW 8.1 mph - N/A   Clear
3:15 PM 80.6 °F 83.2 °F 68.0 °F 65% 30.03 in 10.0 mi SSW 9.2 mph - N/A   Clear
3:35 PM 80.6 °F 83.9 °F 69.8 °F 70% 30.02 in 10.0 mi South 9.2 mph - N/A   Clear
3:55 PM 80.6 °F 83.9 °F 69.8 °F 70% 30.03 in 10.0 mi SSW 9.2 mph - N/A   Clear
4:15 PM 78.8 °F - 68.0 °F 69% 30.03 in 10.0 mi South 9.2 mph - N/A   Clear
4:35 PM 80.6 °F 83.9 °F 69.8 °F 70% 30.03 in 10.0 mi SSW 5.8 mph - N/A   Clear
4:55 PM 78.8 °F - 69.8 °F 74% 30.04 in 10.0 mi South 8.1 mph - N/A   Clear
5:15 PM 78.8 °F - 69.8 °F 74% 30.04 in 10.0 mi SW 8.1 mph - N/A   Clear
5:35 PM 78.8 °F - 69.8 °F 74% 30.04 in 10.0 mi SW 6.9 mph - N/A   Clear
5:55 PM 77.0 °F - 69.8 °F 78% 30.05 in 10.0 mi SSW 6.9 mph - N/A   Clear
6:15 PM 75.2 °F - 69.8 °F 83% 30.05 in 10.0 mi SW 4.6 mph - N/A   Clear
6:35 PM 75.2 °F - 69.8 °F 83% 30.04 in 10.0 mi SW 4.6 mph - N/A   Clear
6:55 PM 73.4 °F - 69.8 °F 88% 30.04 in 10.0 mi WSW 3.5 mph - N/A   Clear
7:15 PM 73.4 °F - 69.8 °F 88% 30.05 in 10.0 mi Calm Calm - N/A   Clear
7:35 PM 73.4 °F - 69.8 °F 88% 30.06 in 10.0 mi WNW 5.8 mph - N/A   Clear
7:55 PM 73.4 °F - 69.8 °F 88% 30.07 in 10.0 mi WNW 5.8 mph - N/A   Clear
8:15 PM 71.6 °F - 69.8 °F 94% 30.07 in 10.0 mi NW 5.8 mph - N/A   Clear
8:35 PM 71.6 °F - 69.8 °F 94% 30.08 in 10.0 mi North 3.5 mph - N/A   Clear
8:55 PM 71.6 °F - 69.8 °F 94% 30.08 in 10.0 mi Calm Calm - N/A   Clear
9:15 PM 71.6 °F - 69.8 °F 94% 30.09 in 10.0 mi Calm Calm - N/A   Clear
9:35 PM 71.6 °F - 68.0 °F 88% 30.09 in 10.0 mi Calm Calm - N/A   Partly Cloudy
9:55 PM 69.8 °F - 68.0 °F 94% 30.09 in 10.0 mi Calm Calm - N/A   Clear
10:15 PM 69.8 °F - 68.0 °F 94% 30.09 in 10.0 mi NW 4.6 mph - N/A   Clear
10:35 PM 71.6 °F - 69.8 °F 94% 30.10 in 9.0 mi NW 5.8 mph - N/A   Scattered Clouds
10:55 PM 71.6 °F - 69.8 °F 94% 30.10 in 9.0 mi NW 8.1 mph - N/A   Overcast
11:15 PM 69.8 °F - 69.8 °F 100% 30.10 in 4.0 mi NW 5.8 mph - N/A   Overcast
11:35 PM 71.6 °F - 69.8 °F 94% 30.09 in 7.0 mi NW 3.5 mph - N/A   Overcast
11:55 PM 69.8 °F - 69.8 °F 100% 30.09 in 8.0 mi NNW 3.5 mph - N/A   Mostly Cloudy